Regional Weather Roundup
Issued by NWS

Home | Current Version | Previous Version | Graphics & Text | Print | Product List | Glossary On
Versions: 1 2 3 4 5 6 7 8 9 10 11 12 13 14 15 16 17 18 19 20 21 22 23 24 25 26 27 28 29 30 31 32 33 34 35 36 37 38 39 40 41 42 43 44 45 46 47 48 49
000
ASUS45 KSLC 311810
RWRUT

UTAH REGIONAL WEATHER ROUNDUP
NATIONAL WEATHER SERVICE SALT LAKE CITY UT
1200 PM MDT MON AUG 31 2015

UTZ001>011-023>025-311900-

NORTHERN UTAH

CITY           SKY/WX    TMP DP  RH WIND       PRES   REMARKS
BRIGHAM CITY   SUNNY     76  36  23 E3        30.10F
HILL AFB       SUNNY     76  41  28 VRB1      30.12F
LOGAN          SUNNY     72  32  23 VRB3      30.12F
OGDEN          SUNNY     77  42  28 VRB3      30.10S
PROVO AIRPORT  MOSUNNY   75  48  38 SE3       30.12S
SALT LAKE CITY MOSUNNY   79  33  19 CALM      30.08F
VERNAL         SUNNY     74  51  44 CALM      30.17F
WENDOVER       SUNNY     75  28  17 SE7       30.11F
HEBER CITY     SUNNY     77  46  33 CALM      30.15F
WEST JORDAN    SUNNY     77  45  31 NW7       30.12S

$$

UTZ012>022-026-027-311900-

SOUTHERN/CENTRAL UTAH

CITY           SKY/WX    TMP DP  RH WIND       PRES   REMARKS
BLANDING       SUNNY     76  52  43 S7        30.31F
BRYCE CANYON   PTSUNNY   71  53  52 SE12G21   30.34R
CEDAR CITY     SUNNY     82  41  23 S17G25    30.16S
DELTA          SUNNY     79  39  23 SW8       30.12S
HANKSVILLE     SUNNY     81  50  34 SE7       30.13F
MILFORD        SUNNY     83  48  29 SW10      30.12S
MOAB/CYNLANDS  SUNNY     79  58  48 E7        30.13F
PRICE          SUNNY     73  52  47 VRB5      30.21F
ST GEORGE      CLEAR     91  54  27 NE5       30.01S
KANAB          SUNNY     79  61  53 CALM      30.22F

$$

REGIONAL REPORTS     COLORADO/ARIZONA

CITY           SKY/WX    TMP DP  RH WIND       PRES   REMARKS
CRAIG, CO      MOSUNNY   76  52  43 VRB3      30.23F
GRAND JUNCTION MOSUNNY   71  57  61 S7        30.18F
RIFLE          LGT RAIN  64  58  80 CALM      30.26R
MONTROSE       PTSUNNY   72  56  57 VRB5      30.27F
CORTEZ         MOSUNNY   79  51  37 VRB5      30.24F
PAGE, AZ       MOSUNNY   77  59  53 NW7       30.14F
GRAND CANYON   PTSUNNY   70  55  59 S5        30.30S
KINGMAN        MOSUNNY   93  41  16 W10       30.03S
FLAGSTAFF      MOSUNNY   72  55  55 SW8       30.33F

$$

REGIONAL REPORTS    NEVADA/IDAHO/WYOMING

CITY           SKY/WX    TMP DP  RH WIND       PRES   REMARKS
LAS VEGAS, NV  MOSUNNY   94  46  19 CALM      29.88R HX  90
ELY            SUNNY     73  28  18 NE5       30.19F
ELKO           SUNNY    N/A N/A N/A MISG      30.12F
POCATELLO, ID  SUNNY     71  39  31 W8        30.14F
BURLEY         SUNNY     69  43  38 VRB5      30.12S
EVANSTON, WY   MOSUNNY   74  37  26 SW13G22   30.24F
ROCK SPRINGS   SUNNY     70  45  40 SW9       30.23F
KEMMERER       SUNNY     72  25  17 W12       30.26S

$$



USA.gov is the U.S. government's official web portal to all federal, state and local government web resources and services.